Year,Month,Day,Hour,Minute,Value (Times are PST for temperature in C)
2015,09,28,00,00,7.40
2015,09,28,00,01,7.40
2015,09,28,00,02,7.40
2015,09,28,00,03,7.40
2015,09,28,00,04,7.40
2015,09,28,00,05,7.40
2015,09,28,00,06,7.40
2015,09,28,00,07,7.40
2015,09,28,00,08,7.40
2015,09,28,00,09,7.40
2015,09,28,00,10,7.40
2015,09,28,00,11,7.40
2015,09,28,00,12,7.40
2015,09,28,00,13,7.40
2015,09,28,00,14,7.40
2015,09,28,00,15,7.40
2015,09,28,00,16,7.40
2015,09,28,00,17,7.40
2015,09,28,00,18,7.40
2015,09,28,00,19,7.40
2015,09,28,00,20,7.40
2015,09,28,00,21,7.40
2015,09,28,00,22,7.40
2015,09,28,00,23,7.40
2015,09,28,00,24,7.40
2015,09,28,00,25,7.40
2015,09,28,00,26,7.40
2015,09,28,00,27,7.40
2015,09,28,00,28,7.40
2015,09,28,00,29,7.40
2015,09,28,00,30,7.40
2015,09,28,00,31,7.40
2015,09,28,00,32,7.40
2015,09,28,00,33,7.40
2015,09,28,00,34,7.40
2015,09,28,00,35,7.40
2015,09,28,00,36,7.40
2015,09,28,00,37,7.40
2015,09,28,00,38,7.40
2015,09,28,00,39,7.40
2015,09,28,00,40,7.40
2015,09,28,00,41,7.50
2015,09,28,00,42,7.50
2015,09,28,00,43,7.50
2015,09,28,00,44,7.50
2015,09,28,00,45,7.50
2015,09,28,00,46,7.50
2015,09,28,00,47,7.50
2015,09,28,00,48,7.50
2015,09,28,00,49,7.50
2015,09,28,00,50,7.50
2015,09,28,00,51,7.50
2015,09,28,00,52,7.50
2015,09,28,00,53,7.50
2015,09,28,00,54,7.50
2015,09,28,00,55,7.50
2015,09,28,00,56,7.40
2015,09,28,00,57,7.40
2015,09,28,00,58,7.40
2015,09,28,00,59,7.40
2015,09,28,01,00,7.40
2015,09,28,01,01,7.50
2015,09,28,01,02,7.50
2015,09,28,01,03,7.50
2015,09,28,01,04,7.50
2015,09,28,01,05,7.50
2015,09,28,01,06,7.50
2015,09,28,01,07,7.60
2015,09,28,01,08,7.60
2015,09,28,01,09,7.60
2015,09,28,01,10,7.60
2015,09,28,01,11,7.60
2015,09,28,01,12,7.60
2015,09,28,01,13,7.60
2015,09,28,01,14,7.60
2015,09,28,01,15,7.60
2015,09,28,01,16,7.60
2015,09,28,01,17,7.60
2015,09,28,01,18,7.60
2015,09,28,01,19,7.60
2015,09,28,01,20,7.60
2015,09,28,01,21,7.70
2015,09,28,01,22,7.70
2015,09,28,01,23,7.70
2015,09,28,01,24,7.70
2015,09,28,01,25,7.70
2015,09,28,01,26,7.70
2015,09,28,01,27,7.70
2015,09,28,01,28,7.70
2015,09,28,01,29,7.80
2015,09,28,01,30,7.80
2015,09,28,01,31,7.80
2015,09,28,01,32,7.80
2015,09,28,01,33,7.80
2015,09,28,01,34,7.80
2015,09,28,01,35,7.80
2015,09,28,01,36,7.80
2015,09,28,01,37,7.80
2015,09,28,01,38,7.90
2015,09,28,01,39,7.90
2015,09,28,01,40,7.90
2015,09,28,01,41,7.90
2015,09,28,01,42,7.90
2015,09,28,01,43,7.90
2015,09,28,01,44,7.90
2015,09,28,01,45,7.90
2015,09,28,01,46,7.90
2015,09,28,01,47,7.90
2015,09,28,01,48,7.90
2015,09,28,01,49,7.90
2015,09,28,01,50,7.90
2015,09,28,01,51,7.90
2015,09,28,01,52,7.90
2015,09,28,01,53,8.00
2015,09,28,01,54,8.00
2015,09,28,01,55,8.00
2015,09,28,01,56,8.00
2015,09,28,01,57,8.10
2015,09,28,01,58,8.10
2015,09,28,01,59,8.10
2015,09,28,02,00,8.10
2015,09,28,02,01,8.10
2015,09,28,02,02,8.10
2015,09,28,02,03,8.10
2015,09,28,02,04,8.20
2015,09,28,02,05,8.20
2015,09,28,02,06,8.20
2015,09,28,02,07,8.20
2015,09,28,02,08,8.20
2015,09,28,02,09,8.20
2015,09,28,02,10,8.20
2015,09,28,02,11,8.20
2015,09,28,02,12,8.20
2015,09,28,02,13,8.20
2015,09,28,02,14,8.20
2015,09,28,02,15,8.20
2015,09,28,02,16,8.20
2015,09,28,02,17,8.20
2015,09,28,02,18,8.20
2015,09,28,02,19,8.30
2015,09,28,02,20,8.40
2015,09,28,02,21,8.60
2015,09,28,02,22,8.70
2015,09,28,02,23,8.90
2015,09,28,02,24,9.10
2015,09,28,02,25,9.30
2015,09,28,02,26,9.50
2015,09,28,02,27,9.70
2015,09,28,02,28,9.90
2015,09,28,02,29,10.00
2015,09,28,02,30,10.10
2015,09,28,02,31,10.30
2015,09,28,02,32,10.30
2015,09,28,02,33,10.40
2015,09,28,02,34,10.50
2015,09,28,02,35,10.50
2015,09,28,02,36,10.60
2015,09,28,02,37,10.60
2015,09,28,02,38,10.60
2015,09,28,02,39,10.70
2015,09,28,02,40,10.70
2015,09,28,02,41,10.70
2015,09,28,02,42,10.80
2015,09,28,02,43,10.90
2015,09,28,02,44,11.00
2015,09,28,02,45,11.20
2015,09,28,02,46,11.30
2015,09,28,02,47,11.30
2015,09,28,02,48,11.40
2015,09,28,02,49,11.40
2015,09,28,02,50,11.50
2015,09,28,02,51,11.60
2015,09,28,02,52,11.70
2015,09,28,02,53,11.80
2015,09,28,02,54,11.80
2015,09,28,02,55,11.80
2015,09,28,02,56,11.90
2015,09,28,02,57,11.90
2015,09,28,02,58,12.00
2015,09,28,02,59,12.00
2015,09,28,03,00,12.00
2015,09,28,03,01,12.00
2015,09,28,03,02,12.00
2015,09,28,03,06,11.90
2015,09,28,03,07,11.90
2015,09,28,03,08,12.00
2015,09,28,03,09,12.00
2015,09,28,03,10,12.00
2015,09,28,03,11,12.00
2015,09,28,03,12,11.90
2015,09,28,03,13,11.90
2015,09,28,03,14,11.90
2015,09,28,03,15,11.90
2015,09,28,03,16,11.90
2015,09,28,03,17,11.90
2015,09,28,03,18,11.90
2015,09,28,03,19,11.90
2015,09,28,03,20,11.90
2015,09,28,03,21,11.90
2015,09,28,03,22,12.00
2015,09,28,03,23,12.00
2015,09,28,03,24,12.10
2015,09,28,03,25,12.10
2015,09,28,03,26,12.10
2015,09,28,03,27,12.10
2015,09,28,03,28,12.00
2015,09,28,03,29,12.00
2015,09,28,03,30,12.00
2015,09,28,03,31,12.00
2015,09,28,03,32,12.00
2015,09,28,03,33,12.00
2015,09,28,03,34,12.00
2015,09,28,03,35,12.00
2015,09,28,03,36,12.10
2015,09,28,03,37,12.10
2015,09,28,03,38,12.10
2015,09,28,03,39,12.10
2015,09,28,03,40,12.10
2015,09,28,03,41,12.10
2015,09,28,03,42,12.10
2015,09,28,03,43,12.10
2015,09,28,03,44,12.10
2015,09,28,03,45,12.00
2015,09,28,03,46,12.10
2015,09,28,03,47,12.10
2015,09,28,03,48,12.10
2015,09,28,03,49,12.10
2015,09,28,03,50,12.20
2015,09,28,03,51,12.20
2015,09,28,03,52,12.20
2015,09,28,03,53,12.30
2015,09,28,03,54,12.30
2015,09,28,03,55,12.30
2015,09,28,03,56,12.30
2015,09,28,03,57,12.30
2015,09,28,03,58,12.30
2015,09,28,03,59,12.30
2015,09,28,04,00,12.30
2015,09,28,04,01,12.30
2015,09,28,04,02,12.20
2015,09,28,04,03,12.20
2015,09,28,04,04,12.20
2015,09,28,04,05,12.20
2015,09,28,04,06,12.20
2015,09,28,04,07,12.10
2015,09,28,04,08,12.10
2015,09,28,04,09,12.10
2015,09,28,04,10,12.10
2015,09,28,04,11,12.10
2015,09,28,04,12,12.10
2015,09,28,04,13,12.10
2015,09,28,04,14,12.10
2015,09,28,04,15,12.10
2015,09,28,04,16,12.10
2015,09,28,04,17,12.10
2015,09,28,04,18,12.00
2015,09,28,04,19,12.00
2015,09,28,04,20,11.90
2015,09,28,04,21,11.90
2015,09,28,04,22,11.90
2015,09,28,04,23,11.80
2015,09,28,04,24,11.80
2015,09,28,04,25,11.80
2015,09,28,04,26,11.80
2015,09,28,04,27,11.70
2015,09,28,04,28,11.70
2015,09,28,04,29,11.70
2015,09,28,04,30,11.70
2015,09,28,04,31,11.70
2015,09,28,04,32,11.70
2015,09,28,04,33,11.60
2015,09,28,04,34,11.60
2015,09,28,04,35,11.60
2015,09,28,04,36,11.60
2015,09,28,04,37,11.60
2015,09,28,04,38,11.60
2015,09,28,04,39,11.60
2015,09,28,04,40,11.60
2015,09,28,04,41,11.60
2015,09,28,04,42,11.60
2015,09,28,04,43,11.50
2015,09,28,04,44,11.50
2015,09,28,04,45,11.50
2015,09,28,04,46,11.40
2015,09,28,04,47,11.40
2015,09,28,04,48,11.40
2015,09,28,04,49,11.30
2015,09,28,04,50,11.30
2015,09,28,04,51,11.30
2015,09,28,04,52,11.30
2015,09,28,04,53,11.20
2015,09,28,04,54,11.20
2015,09,28,04,55,11.20
2015,09,28,04,56,11.10
2015,09,28,04,57,11.10
2015,09,28,04,58,11.10
2015,09,28,04,59,11.00
2015,09,28,05,00,11.00
2015,09,28,05,01,10.90
2015,09,28,05,02,10.90
2015,09,28,05,03,10.90
2015,09,28,05,04,10.90
2015,09,28,05,05,10.90
2015,09,28,05,06,10.90
2015,09,28,05,07,10.90
2015,09,28,05,08,10.90
2015,09,28,05,09,10.90
2015,09,28,05,10,10.90
2015,09,28,05,11,10.90
2015,09,28,05,12,10.80
2015,09,28,05,13,10.80
2015,09,28,05,14,10.80
2015,09,28,05,15,10.80
2015,09,28,05,16,10.80
2015,09,28,05,17,10.70
2015,09,28,05,18,10.70
2015,09,28,05,19,10.70
2015,09,28,05,20,10.70
2015,09,28,05,21,10.70
2015,09,28,05,22,10.70
2015,09,28,05,23,10.70
2015,09,28,05,24,10.60
2015,09,28,05,25,10.60
2015,09,28,05,26,10.60
2015,09,28,05,27,10.70
2015,09,28,05,28,10.60
2015,09,28,05,29,10.60
2015,09,28,05,30,10.60
2015,09,28,05,31,10.60
2015,09,28,05,32,10.60
2015,09,28,05,33,10.60
2015,09,28,05,34,10.60
2015,09,28,05,35,10.60
2015,09,28,05,36,10.70
2015,09,28,05,37,10.70
2015,09,28,05,38,10.70
2015,09,28,05,39,10.60
2015,09,28,05,40,10.60
2015,09,28,05,41,10.70
2015,09,28,05,42,10.70
2015,09,28,05,43,10.70
2015,09,28,05,44,10.70
2015,09,28,05,45,10.70
2015,09,28,05,46,10.70
2015,09,28,05,47,10.80
2015,09,28,05,48,10.80
2015,09,28,05,49,10.80
2015,09,28,05,50,10.90
2015,09,28,05,51,10.90
2015,09,28,05,52,10.90
2015,09,28,05,53,11.00
2015,09,28,05,54,11.00
2015,09,28,05,55,11.00
2015,09,28,05,56,11.10
2015,09,28,05,57,11.10
2015,09,28,05,58,11.10
2015,09,28,05,59,11.10
2015,09,28,06,00,11.10
2015,09,28,06,01,11.10
2015,09,28,06,02,11.10
2015,09,28,06,03,11.10
2015,09,28,06,04,11.10
2015,09,28,06,05,11.10
2015,09,28,06,06,11.10
2015,09,28,06,07,11.10
2015,09,28,06,08,11.10
2015,09,28,06,09,11.10
2015,09,28,06,10,11.10
2015,09,28,06,11,11.10
2015,09,28,06,12,11.10
2015,09,28,06,13,11.10
2015,09,28,06,14,11.10
2015,09,28,06,15,11.00
2015,09,28,06,16,11.00
2015,09,28,06,17,11.00
2015,09,28,06,18,11.00
2015,09,28,06,19,11.00
2015,09,28,06,20,11.00
2015,09,28,06,21,11.00
2015,09,28,06,22,11.00
2015,09,28,06,23,11.00
2015,09,28,06,24,11.00
2015,09,28,06,25,11.00
2015,09,28,06,26,10.90
2015,09,28,06,27,10.90
2015,09,28,06,28,10.90
2015,09,28,06,29,10.90
2015,09,28,06,30,10.90
2015,09,28,06,31,11.00
2015,09,28,06,32,11.00
2015,09,28,06,33,11.00
2015,09,28,06,34,11.10
2015,09,28,06,35,11.10
2015,09,28,06,36,11.10
2015,09,28,06,37,11.10
2015,09,28,06,38,11.10
2015,09,28,06,39,11.10
2015,09,28,06,40,11.10
2015,09,28,06,41,11.00
2015,09,28,06,42,11.00
2015,09,28,06,43,11.00
2015,09,28,06,44,11.00
2015,09,28,06,45,10.90
2015,09,28,06,46,10.90
2015,09,28,06,47,10.90
2015,09,28,06,48,10.80
2015,09,28,06,49,10.80
2015,09,28,06,50,10.80
2015,09,28,06,51,10.70
2015,09,28,06,52,10.70
2015,09,28,06,53,10.70
2015,09,28,06,54,10.70
2015,09,28,06,55,10.60
2015,09,28,06,56,10.60
2015,09,28,06,57,10.60
2015,09,28,06,58,10.50
2015,09,28,06,59,10.50
2015,09,28,07,00,10.50
2015,09,28,07,01,10.40
2015,09,28,07,02,10.50
2015,09,28,07,03,10.40
2015,09,28,07,04,10.40
2015,09,28,07,05,10.40
2015,09,28,07,06,10.40
2015,09,28,07,07,10.40
2015,09,28,07,08,10.30
2015,09,28,07,09,10.30
2015,09,28,07,10,10.30
2015,09,28,07,11,10.20
2015,09,28,07,12,10.20
2015,09,28,07,13,10.20
2015,09,28,07,14,10.10
2015,09,28,07,15,10.10
2015,09,28,07,16,10.10
2015,09,28,07,17,10.00
2015,09,28,07,18,10.00
2015,09,28,07,19,9.90
2015,09,28,07,20,9.90
2015,09,28,07,21,9.90
2015,09,28,07,22,9.90
2015,09,28,07,23,9.90
2015,09,28,07,24,9.80
2015,09,28,07,25,9.80
2015,09,28,07,26,9.80
2015,09,28,07,27,9.70
2015,09,28,07,28,9.70
2015,09,28,07,29,9.70
2015,09,28,07,30,9.70
2015,09,28,07,31,9.70
2015,09,28,07,32,9.70
2015,09,28,07,33,9.60
2015,09,28,07,34,9.60
2015,09,28,07,35,9.60
2015,09,28,07,36,9.60
2015,09,28,07,37,9.60
2015,09,28,07,38,9.60
2015,09,28,07,39,9.60
2015,09,28,07,40,9.60
2015,09,28,07,41,9.60
2015,09,28,07,42,9.60
2015,09,28,07,43,9.60
2015,09,28,07,44,9.60
2015,09,28,07,45,9.60
2015,09,28,07,46,9.60
2015,09,28,07,47,9.60
2015,09,28,07,48,9.60
2015,09,28,07,49,9.60
2015,09,28,07,50,9.60
2015,09,28,07,51,9.60
2015,09,28,07,52,9.60
2015,09,28,07,53,9.60
2015,09,28,07,54,9.60
2015,09,28,07,55,9.60
2015,09,28,07,56,9.60
2015,09,28,07,57,9.60
2015,09,28,07,58,9.60
2015,09,28,07,59,9.60
2015,09,28,08,00,9.60
2015,09,28,08,01,9.60
2015,09,28,08,02,9.70
2015,09,28,08,03,9.70
2015,09,28,08,04,9.80
2015,09,28,08,05,9.80
2015,09,28,08,06,9.80
2015,09,28,08,07,9.90
2015,09,28,08,08,10.00
2015,09,28,08,09,10.00
2015,09,28,08,10,10.10
2015,09,28,08,11,10.10
2015,09,28,08,12,10.10
2015,09,28,08,13,10.20
2015,09,28,08,14,10.20
2015,09,28,08,15,10.30
2015,09,28,08,16,10.30
2015,09,28,08,17,10.30
2015,09,28,08,18,10.40
2015,09,28,08,19,10.40
2015,09,28,08,20,10.50
2015,09,28,08,21,10.60
2015,09,28,08,22,10.60
2015,09,28,08,23,10.70
2015,09,28,08,24,10.80
2015,09,28,08,25,10.90
2015,09,28,08,26,11.00
2015,09,28,08,27,11.10
2015,09,28,08,28,11.20
2015,09,28,08,29,11.20
2015,09,28,08,30,11.30
2015,09,28,08,31,11.50
2015,09,28,08,32,11.50
2015,09,28,08,33,11.60
2015,09,28,08,34,11.70
2015,09,28,08,35,11.80
2015,09,28,08,36,11.90
2015,09,28,08,37,11.90
2015,09,28,08,38,12.00
2015,09,28,08,39,12.10
2015,09,28,08,40,12.20
2015,09,28,08,41,12.20
2015,09,28,08,42,12.30
2015,09,28,08,43,12.30
2015,09,28,08,44,12.40
2015,09,28,08,45,12.40
2015,09,28,08,46,12.50
2015,09,28,08,47,12.60
2015,09,28,08,48,12.60
2015,09,28,08,49,12.60
2015,09,28,08,50,12.70
2015,09,28,08,51,12.70
2015,09,28,08,52,12.80
2015,09,28,08,53,12.80
2015,09,28,08,54,12.90
2015,09,28,08,55,12.90
2015,09,28,08,56,13.00
2015,09,28,08,57,13.00
2015,09,28,08,58,13.10
2015,09,28,08,59,13.20
2015,09,28,09,00,13.20
2015,09,28,09,01,13.30
2015,09,28,09,02,13.30
2015,09,28,09,03,13.30
2015,09,28,09,04,13.30
2015,09,28,09,05,13.40
2015,09,28,09,06,13.40
2015,09,28,09,07,13.40
2015,09,28,09,08,13.40
2015,09,28,09,09,13.50
2015,09,28,09,10,13.50
2015,09,28,09,11,13.50
2015,09,28,09,12,13.50
2015,09,28,09,13,13.50
2015,09,28,09,14,13.60
2015,09,28,09,15,13.60
2015,09,28,09,16,13.60
2015,09,28,09,17,13.60
2015,09,28,09,18,13.70
2015,09,28,09,19,13.70
2015,09,28,09,20,13.70
2015,09,28,09,21,13.70
2015,09,28,09,22,13.80
2015,09,28,09,23,13.80
2015,09,28,09,24,13.80
2015,09,28,09,25,13.80
2015,09,28,09,26,13.90
2015,09,28,09,27,13.90
2015,09,28,09,28,13.90
2015,09,28,09,29,14.00
2015,09,28,09,30,14.00
2015,09,28,09,31,14.00
2015,09,28,09,32,14.00
2015,09,28,09,33,14.00
2015,09,28,09,34,14.00
2015,09,28,09,35,14.00
2015,09,28,09,36,14.10
2015,09,28,09,37,14.10
2015,09,28,09,38,14.10
2015,09,28,09,39,14.10
2015,09,28,09,40,14.20
2015,09,28,09,41,14.20
2015,09,28,09,42,14.20
2015,09,28,09,43,14.20
2015,09,28,09,44,14.20
2015,09,28,09,45,14.20
2015,09,28,09,46,14.30
2015,09,28,09,47,14.30
2015,09,28,09,48,14.30
2015,09,28,09,49,14.30
2015,09,28,09,50,14.30
2015,09,28,09,51,14.40
2015,09,28,09,52,14.40
2015,09,28,09,53,14.40
2015,09,28,09,54,14.50
2015,09,28,09,55,14.60
2015,09,28,09,56,14.60
2015,09,28,09,57,14.60
2015,09,28,09,58,14.60
2015,09,28,09,59,14.70
2015,09,28,10,00,14.70
2015,09,28,10,01,14.80
2015,09,28,10,02,14.80
2015,09,28,10,03,14.80
2015,09,28,10,04,14.80
2015,09,28,10,05,14.90
2015,09,28,10,06,14.90
2015,09,28,10,07,14.90
2015,09,28,10,08,15.00
2015,09,28,10,09,15.00
2015,09,28,10,10,15.10
2015,09,28,10,11,15.10
2015,09,28,10,12,15.20
2015,09,28,10,13,15.20
2015,09,28,10,14,15.30
2015,09,28,10,15,15.30
2015,09,28,10,16,15.30
2015,09,28,10,17,15.40
2015,09,28,10,18,15.30
2015,09,28,10,19,15.30
2015,09,28,10,20,15.30
2015,09,28,10,21,15.30
2015,09,28,10,22,15.40
2015,09,28,10,23,15.40
2015,09,28,10,24,15.50
2015,09,28,10,25,15.50
2015,09,28,10,26,15.60
2015,09,28,10,27,15.60
2015,09,28,10,28,15.70
2015,09,28,10,29,15.80
2015,09,28,10,30,15.80
2015,09,28,10,31,15.90
2015,09,28,10,32,15.90
2015,09,28,10,33,16.00
2015,09,28,10,34,16.00
2015,09,28,10,35,16.10
2015,09,28,10,36,16.10
2015,09,28,10,37,16.10
2015,09,28,10,38,16.10
2015,09,28,10,39,16.10
2015,09,28,10,40,16.20
2015,09,28,10,41,16.20
2015,09,28,10,42,16.20
2015,09,28,10,43,16.30
2015,09,28,10,44,16.30
2015,09,28,10,45,16.40
2015,09,28,10,46,16.40
2015,09,28,10,47,16.40
2015,09,28,10,48,16.50
2015,09,28,10,49,16.50
2015,09,28,10,50,16.50
2015,09,28,10,51,16.60
2015,09,28,10,52,16.60
2015,09,28,10,53,16.50
2015,09,28,10,54,16.50
2015,09,28,10,55,16.40
2015,09,28,10,56,16.30
2015,09,28,10,57,16.30
2015,09,28,10,58,16.20
2015,09,28,10,59,16.30
2015,09,28,11,00,16.30
2015,09,28,11,01,16.30
2015,09,28,11,02,16.30
2015,09,28,11,03,16.30
2015,09,28,11,04,16.40
2015,09,28,11,05,16.40
2015,09,28,11,06,16.40
2015,09,28,11,07,16.50
2015,09,28,11,08,16.60
2015,09,28,11,09,16.60
2015,09,28,11,10,16.70
2015,09,28,11,11,16.70
2015,09,28,11,12,16.80
2015,09,28,11,13,16.80
2015,09,28,11,14,16.80
2015,09,28,11,15,16.80
2015,09,28,11,16,16.90
2015,09,28,11,17,16.90
2015,09,28,11,18,17.00
2015,09,28,11,19,17.10
2015,09,28,11,20,17.20
2015,09,28,11,21,17.30
2015,09,28,11,22,17.30
2015,09,28,11,23,17.30
2015,09,28,11,24,17.40
2015,09,28,11,25,17.40
2015,09,28,11,26,17.40
2015,09,28,11,27,17.40
2015,09,28,11,28,17.40
2015,09,28,11,29,17.50
2015,09,28,11,30,17.50
2015,09,28,11,31,17.50
2015,09,28,11,32,17.50
2015,09,28,11,33,17.50
2015,09,28,11,34,17.50
2015,09,28,11,35,17.50
2015,09,28,11,36,17.50
2015,09,28,11,37,17.50
2015,09,28,11,38,17.50
2015,09,28,11,39,17.60
2015,09,28,11,40,17.60
2015,09,28,11,41,17.70
2015,09,28,11,42,17.70
2015,09,28,11,43,17.70
2015,09,28,11,44,17.80
2015,09,28,11,45,17.80
2015,09,28,11,46,17.90
2015,09,28,11,47,17.90
2015,09,28,11,48,17.90
2015,09,28,11,49,17.90
2015,09,28,11,50,17.90
2015,09,28,11,51,17.80
2015,09,28,11,52,17.90
2015,09,28,11,53,17.80
2015,09,28,11,54,17.80
2015,09,28,11,55,17.90
2015,09,28,11,56,17.90
2015,09,28,11,57,17.90
2015,09,28,11,58,17.90
2015,09,28,11,59,18.00
2015,09,28,12,00,18.00
2015,09,28,12,01,17.90
2015,09,28,12,02,17.90
2015,09,28,12,03,17.90
2015,09,28,12,04,17.80
2015,09,28,12,05,17.80
2015,09,28,12,06,17.80
2015,09,28,12,07,17.90
2015,09,28,12,08,17.90
2015,09,28,12,09,18.00
2015,09,28,12,10,18.00
2015,09,28,12,11,18.10
2015,09,28,12,12,18.20
2015,09,28,12,13,18.30
2015,09,28,12,14,18.40
2015,09,28,12,15,18.40
2015,09,28,12,16,18.40
2015,09,28,12,17,18.50
2015,09,28,12,18,18.50
2015,09,28,12,19,18.60
2015,09,28,12,20,18.60
2015,09,28,12,21,18.60
2015,09,28,12,22,18.60
2015,09,28,12,23,18.60
2015,09,28,12,24,18.60
2015,09,28,12,25,18.60
2015,09,28,12,26,18.70
2015,09,28,12,27,18.70
2015,09,28,12,28,18.70
2015,09,28,12,29,18.70
2015,09,28,12,30,18.80
2015,09,28,12,31,18.80
2015,09,28,12,32,18.80
2015,09,28,12,33,18.80
2015,09,28,12,34,18.80
2015,09,28,12,35,18.70
2015,09,28,12,36,18.70
2015,09,28,12,37,18.70
2015,09,28,12,38,18.70
2015,09,28,12,39,18.60
2015,09,28,12,40,18.60
2015,09,28,12,41,18.60
2015,09,28,12,42,18.70
2015,09,28,12,43,18.70
2015,09,28,12,44,18.70
2015,09,28,12,45,18.70
2015,09,28,12,46,18.80
2015,09,28,12,47,18.80
2015,09,28,12,48,18.80
2015,09,28,12,49,18.90
2015,09,28,12,50,18.90
2015,09,28,12,51,18.90
2015,09,28,12,52,18.90
2015,09,28,12,53,18.90
2015,09,28,12,54,18.90
2015,09,28,12,55,18.80
2015,09,28,12,56,18.80
2015,09,28,12,57,18.80
2015,09,28,12,58,18.90
2015,09,28,12,59,18.90
2015,09,28,13,00,18.90
2015,09,28,13,01,18.90
2015,09,28,13,02,18.90
2015,09,28,13,03,18.90
2015,09,28,13,04,18.90
2015,09,28,13,05,19.00
2015,09,28,13,06,19.00
2015,09,28,13,07,19.00
2015,09,28,13,08,18.90
2015,09,28,13,09,18.90
2015,09,28,13,10,18.80
2015,09,28,13,11,18.80
2015,09,28,13,12,18.80
2015,09,28,13,13,18.90
2015,09,28,13,14,18.90
2015,09,28,13,15,19.00
2015,09,28,13,16,19.10
2015,09,28,13,17,19.10
2015,09,28,13,18,19.20
2015,09,28,13,19,19.20
2015,09,28,13,20,19.20
2015,09,28,13,21,19.20
2015,09,28,13,22,19.20
2015,09,28,13,23,19.30
2015,09,28,13,24,19.30
2015,09,28,13,25,19.30
2015,09,28,13,26,19.30
2015,09,28,13,27,19.30
2015,09,28,13,28,19.40
2015,09,28,13,29,19.40
2015,09,28,13,30,19.50
2015,09,28,13,31,19.50
2015,09,28,13,32,19.50
2015,09,28,13,33,19.40
2015,09,28,13,34,19.30
2015,09,28,13,35,19.30
2015,09,28,13,36,19.20
2015,09,28,13,37,19.20
2015,09,28,13,38,19.10
2015,09,28,13,39,19.00
2015,09,28,13,40,19.00
2015,09,28,13,41,18.90
2015,09,28,13,42,18.90
2015,09,28,13,43,18.90
2015,09,28,13,44,18.90
2015,09,28,13,45,18.90
2015,09,28,13,46,18.90
2015,09,28,13,47,18.90
2015,09,28,13,48,19.00
2015,09,28,13,49,19.00
2015,09,28,13,50,19.10
2015,09,28,13,51,19.10
2015,09,28,13,52,19.20
2015,09,28,13,53,19.30
2015,09,28,13,54,19.40
2015,09,28,13,55,19.40
2015,09,28,13,56,19.50
2015,09,28,13,57,19.60
2015,09,28,13,58,19.70
2015,09,28,13,59,19.80
2015,09,28,14,00,19.80
2015,09,28,14,01,19.90
2015,09,28,14,02,19.90
2015,09,28,14,03,19.90
2015,09,28,14,04,19.90
2015,09,28,14,05,19.80
2015,09,28,14,06,19.80
2015,09,28,14,07,19.70
2015,09,28,14,08,19.70
2015,09,28,14,09,19.70
2015,09,28,14,10,19.70
2015,09,28,14,11,19.70
2015,09,28,14,12,19.80
2015,09,28,14,13,19.90
2015,09,28,14,14,19.90
2015,09,28,14,15,20.00
2015,09,28,14,16,19.90
2015,09,28,14,17,19.90
2015,09,28,14,18,19.90
2015,09,28,14,19,19.90
2015,09,28,14,20,20.00
2015,09,28,14,21,20.00
2015,09,28,14,22,20.10
2015,09,28,14,23,20.10
2015,09,28,14,24,20.00
2015,09,28,14,25,20.00
2015,09,28,14,26,20.10
2015,09,28,14,27,20.10
2015,09,28,14,28,20.10
2015,09,28,14,29,20.20
2015,09,28,14,30,20.30
2015,09,28,14,31,20.30
2015,09,28,14,32,20.30
2015,09,28,14,33,20.20
2015,09,28,14,34,20.20
2015,09,28,14,35,20.20
2015,09,28,14,36,20.20
2015,09,28,14,37,20.20
2015,09,28,14,38,20.20
2015,09,28,14,39,20.20
2015,09,28,14,40,20.10
2015,09,28,14,41,20.20
2015,09,28,14,42,20.20
2015,09,28,14,43,20.20
2015,09,28,14,44,20.20
2015,09,28,14,45,20.20
2015,09,28,14,46,20.30
2015,09,28,14,47,20.30
2015,09,28,14,48,20.30
2015,09,28,14,49,20.30
2015,09,28,14,50,20.30
2015,09,28,14,51,20.30
2015,09,28,14,52,20.30
2015,09,28,14,53,20.30
2015,09,28,14,54,20.30
2015,09,28,14,55,20.30
2015,09,28,14,56,20.30
2015,09,28,14,57,20.30
2015,09,28,14,58,20.40
2015,09,28,14,59,20.40
2015,09,28,15,00,20.40
2015,09,28,15,01,20.40
2015,09,28,15,02,20.40
2015,09,28,15,03,20.40
2015,09,28,15,04,20.50
2015,09,28,15,05,20.60
2015,09,28,15,06,20.60
2015,09,28,15,07,20.60
2015,09,28,15,08,20.70
2015,09,28,15,09,20.70
2015,09,28,15,10,20.70
2015,09,28,15,11,20.60
2015,09,28,15,12,20.50
2015,09,28,15,13,20.50
2015,09,28,15,14,20.50
2015,09,28,15,15,20.50
2015,09,28,15,16,20.50
2015,09,28,15,17,20.50
2015,09,28,15,18,20.50
2015,09,28,15,19,20.50
2015,09,28,15,20,20.50
2015,09,28,15,21,20.50
2015,09,28,15,22,20.60
2015,09,28,15,23,20.60
2015,09,28,15,24,20.70
2015,09,28,15,25,20.80
2015,09,28,15,26,20.90
2015,09,28,15,27,20.90
2015,09,28,15,28,20.90
2015,09,28,15,29,20.90
2015,09,28,15,30,20.80
2015,09,28,15,31,20.80
2015,09,28,15,32,20.70
2015,09,28,15,33,20.70
2015,09,28,15,34,20.60
2015,09,28,15,35,20.60
2015,09,28,15,36,20.60
2015,09,28,15,37,20.50
2015,09,28,15,38,20.50
2015,09,28,15,39,20.50
2015,09,28,15,40,20.40
2015,09,28,15,41,20.40
2015,09,28,15,42,20.40
2015,09,28,15,43,20.40
2015,09,28,15,44,20.40
2015,09,28,15,45,20.30
2015,09,28,15,46,20.30
2015,09,28,15,47,20.40
2015,09,28,15,48,20.40
2015,09,28,15,49,20.50
2015,09,28,15,50,20.50
2015,09,28,15,51,20.60
2015,09,28,15,52,20.60
2015,09,28,15,53,20.70
2015,09,28,15,54,20.70
2015,09,28,15,55,20.70
2015,09,28,15,56,20.70
2015,09,28,15,57,20.70
2015,09,28,15,58,20.80
2015,09,28,15,59,20.70
2015,09,28,16,00,20.70
2015,09,28,16,01,20.60
2015,09,28,16,02,20.60
2015,09,28,16,03,20.60
2015,09,28,16,04,20.70
2015,09,28,16,05,20.70
2015,09,28,16,06,20.70
2015,09,28,16,07,20.70
2015,09,28,16,08,20.70
2015,09,28,16,09,20.70
2015,09,28,16,10,20.70
2015,09,28,16,11,20.70
2015,09,28,16,12,20.70
2015,09,28,16,13,20.70
2015,09,28,16,14,20.80
2015,09,28,16,15,20.80
2015,09,28,16,16,20.80
2015,09,28,16,17,20.70
2015,09,28,16,18,20.70
2015,09,28,16,19,20.60
2015,09,28,16,20,20.50
2015,09,28,16,21,20.50
2015,09,28,16,22,20.40
2015,09,28,16,23,20.30
2015,09,28,16,24,20.20
2015,09,28,16,25,20.10
2015,09,28,16,26,20.00
2015,09,28,16,27,19.90
2015,09,28,16,28,19.80
2015,09,28,16,29,19.80
2015,09,28,16,30,19.70
2015,09,28,16,31,19.70
2015,09,28,16,32,19.60
2015,09,28,16,33,19.50
2015,09,28,16,34,19.40
2015,09,28,16,35,19.40
2015,09,28,16,36,19.30
2015,09,28,16,37,19.30
2015,09,28,16,38,19.20
2015,09,28,16,39,19.20
2015,09,28,16,40,19.20
2015,09,28,16,41,19.20
2015,09,28,16,42,19.20
2015,09,28,16,43,19.20
2015,09,28,16,44,19.30
2015,09,28,16,45,19.30
2015,09,28,16,46,19.20
2015,09,28,16,47,19.20
2015,09,28,16,48,19.20
2015,09,28,16,49,19.20
2015,09,28,16,50,19.20
2015,09,28,16,51,19.20
2015,09,28,16,52,19.20
2015,09,28,16,53,19.20
2015,09,28,16,54,19.10
2015,09,28,16,55,19.10
2015,09,28,16,56,19.10
2015,09,28,16,57,19.10
2015,09,28,16,58,19.10
2015,09,28,16,59,19.10
2015,09,28,17,00,19.10
2015,09,28,17,01,19.00
2015,09,28,17,02,19.00
2015,09,28,17,03,19.00
2015,09,28,17,04,19.00
2015,09,28,17,05,19.00
2015,09,28,17,06,19.00
2015,09,28,17,07,19.00
2015,09,28,17,08,19.00
2015,09,28,17,09,19.00
2015,09,28,17,10,19.00
2015,09,28,17,11,19.00
2015,09,28,17,12,19.00
2015,09,28,17,13,19.10
2015,09,28,17,14,19.10
2015,09,28,17,15,19.10
2015,09,28,17,16,19.10
2015,09,28,17,17,19.00
2015,09,28,17,18,19.00
2015,09,28,17,19,19.00
2015,09,28,17,20,18.90
2015,09,28,17,21,18.90
2015,09,28,17,22,18.90
2015,09,28,17,23,18.80
2015,09,28,17,24,18.80
2015,09,28,17,25,18.80
2015,09,28,17,26,18.80
2015,09,28,17,27,18.80
2015,09,28,17,28,18.80
2015,09,28,17,29,18.80
2015,09,28,17,30,18.80
2015,09,28,17,31,18.70